EW7837 Weather Reports


time (UTC)temp
F
wind
direction
speed
knots
gust
knots
rain 1hr
in
rain 24hr
in
rain mn
in
humidity
%
barometer
mb
20260905124524 60 232 0.0 0.0 0.00 0.00 0.00 91 1009.3
20260905123022 60 232 0.0 0.0 0.00 0.00 0.00 90 1009.1
20260905121526 60 232 0.0 0.0 0.00 0.00 0.00 90 1009.1
20260905120018 60 232 0.0 0.0 0.00 0.00 0.00 90 1009.1
20260905114518 60 232 0.0 0.0 0.00 0.00 0.00 90 1009.1
20260905113020 60 233 0.0 0.0 0.00 0.00 0.00 90 1009.4
20260905111520 60 232 0.0 0.0 0.00 0.00 0.00 90 1009.1
20260905110013 60 232 0.0 0.0 0.00 0.00 0.00 89 1009.5
20260905104516 60 232 0.0 0.0 0.00 0.00 0.00 89 1009.5
20260905103013 61 232 0.0 0.0 0.00 0.00 0.00 89 1009.5
20260905101511 61 232 0.0 0.0 0.00 0.00 0.00 89 1009.5
20260905100046 61 232 0.0 0.0 0.00 0.00 0.00 89 1009.4
20260905094547 61 232 0.0 0.0 0.00 0.00 0.00 89 1009.6
20260905093044 61 232 0.0 0.0 0.00 0.00 0.00 88 1009.6
20260905091602 62 232 0.0 0.0 0.00 0.00 0.00 89 1009.8
20260905090032 62 232 0.0 0.0 0.00 0.00 0.00 88 1010.0
20260905084539 62 232 0.0 0.0 0.00 0.00 0.00 88 1009.6
20260905083029 63 232 0.0 0.0 0.00 0.00 0.00 88 1010.1
20260905081530 63 232 0.0 0.0 0.00 0.00 0.00 88 1010.2
20260905080038 63 232 0.0 0.0 0.00 0.00 0.00 87 1010.2
20260905074530 63 232 0.0 0.0 0.00 0.00 0.00 87 1010.5
20260905073026 63 232 0.0 0.0 0.00 0.00 0.00 87 1010.2
20260905071523 64 232 0.0 0.0 0.00 0.00 0.00 87 1010.5
20260905070038 64 232 0.0 0.0 0.00 0.00 0.00 86 1010.5
20260905064518 65 232 0.0 0.0 0.00 0.00 0.00 86 1010.5
20260905063117 65 232 0.0 0.0 0.00 0.00 0.00 86 1010.5
20260905061550 65 232 0.0 0.0 0.00 0.00 0.00 86 1010.1
20260905060045 65 232 0.0 0.0 0.00 0.00 0.00 85 1010.1
20260905054532 66 232 0.0 0.0 0.00 0.00 0.00 84 1010.3
20260905053010 66 232 0.0 0.0 0.00 0.00 0.00 84 1010.4
20260905051506 66 232 0.0 0.0 0.00 0.00 0.00 83 1010.4
20260905050004 67 232 0.0 0.0 0.00 0.00 0.00 82 1010.0
20260905044601 68 232 0.0 0.0 0.00 0.00 0.00 82 1009.9
20260905044503 68 232 0.0 0.0 0.00 0.00 0.00 82 1009.9
20260905043059 68 232 0.0 0.0 0.00 0.00 0.00 81 1010.0
20260905043001 68 232 0.0 0.0 0.00 0.00 0.00 81 1010.0
20260905041527 69 232 0.0 0.0 0.00 0.00 0.00 80 1009.9
20260905040024 70 232 0.0 0.0 0.00 0.00 0.00 80 1009.8
20260905034527 71 232 0.0 0.0 0.00 0.00 0.00 80 1009.5
20260905033024 71 232 0.0 0.0 0.00 0.00 0.00 80 1009.1
20260905031517 71 232 0.0 0.0 0.00 0.00 0.00 79 1009.0
20260905030017 71 232 0.0 0.0 0.00 0.00 0.00 79 1009.2
20260905024511 71 232 0.0 0.0 0.00 0.00 0.00 79 1009.0
20260905023009 72 232 0.0 0.0 0.00 0.00 0.00 78 1009.0
20260905021510 73 232 0.0 0.0 0.00 0.00 0.00 76 1009.0
20260905020012 74 232 0.0 0.0 0.00 0.00 0.00 74 1008.7
20260905014536 75 232 0.0 0.0 0.00 0.00 0.00 72 1008.5
20260905013036 76 232 0.0 0.0 0.00 0.00 0.00 71 1008.9
20260905011534 77 221 0.0 0.0 0.00 0.00 0.00 69 1008.9
20260905010033 78 250 0.0 0.0 0.00 0.00 0.00 67 1008.8
20260905004533 79 252 0.0 0.0 0.00 0.00 0.00 66 1008.9
20260905003033 80 255 0.0 0.0 0.00 0.00 0.00 64 1008.6
20260905001530 80 252 0.0 0.0 0.00 0.00 0.00 63 1008.6
20260905000030 80 238 0.0 0.0 0.00 0.00 0.00 62 1008.6
20260904234537 80 248 0.0 0.0 0.00 0.00 0.00 60 1009.0
20260904233026 80 255 0.0 0.0 0.00 0.00 0.00 61 1009.0
20260904231524 79 210 0.0 0.0 0.00 0.00 0.00 61 1009.0
20260904230023 79 252 0.0 0.0 0.00 0.00 0.00 61 1009.0
20260904224522 79 259 0.0 0.0 0.00 0.00 0.00 62 1009.0
20260904223022 79 255 0.0 0.0 0.00 0.00 0.00 62 1009.2
20260904221558 79 244 0.0 0.0 0.00 0.00 0.00 63 1009.6
20260904220058 79 239 0.0 0.0 0.00 0.00 0.00 63 1010.0
20260904214558 79 247 0.0 0.0 0.00 0.00 0.00 63 1009.9
20260904213105 80 218 0.0 0.0 0.00 0.00 0.00 62 1009.5
20260904211547 80 258 0.0 0.0 0.00 0.00 0.00 63 1009.4
20260904210047 80 250 0.0 0.0 0.00 0.00 0.00 63 1009.9
20260904204534 79 248 0.0 0.0 0.00 0.00 0.00 63 1010.0
20260904203042 78 272 0.0 0.0 0.00 0.00 0.00 64 1010.0
20260904201511 79 257 0.0 0.0 0.00 0.00 0.00 64 1010.0
20260904200014 79 249 0.0 0.0 0.00 0.00 0.00 64 1009.7
20260904194509 79 270 0.0 0.0 0.00 0.00 0.00 63 1010.2
20260904193010 78 254 0.0 0.0 0.00 0.00 0.00 63 1010.4
20260904191505 79 261 0.0 0.0 0.00 0.00 0.00 63 1010.5
20260904190007 79 279 0.0 0.0 0.00 0.00 0.00 63 1010.6
20260904184606 78 269 0.0 0.0 0.00 0.00 0.00 66 1010.5
20260904183056 78 247 0.0 0.0 0.00 0.00 0.00 65 1010.7
20260904181542 78 245 0.0 0.0 0.00 0.00 0.00 64 1010.6
20260904180020 78 247 0.0 0.0 0.00 0.00 0.00 64 1010.6
20260904174515 78 254 0.0 0.0 0.00 0.00 0.00 64 1010.5
20260904173012 78 240 0.0 0.0 0.00 0.00 0.00 65 1010.6
20260904171507 78 229 0.0 0.0 0.00 0.00 0.00 66 1010.6
20260904170004 78 250 0.0 0.0 0.00 0.00 0.00 65 1010.6
20260904164600 76 250 0.0 0.0 0.00 0.00 0.00 68 1010.6
20260904163028 75 250 0.0 0.0 0.00 0.00 0.00 70 1010.3
20260904161521 73 250 0.0 0.0 0.00 0.00 0.00 72 1010.5
20260904160020 72 250 0.0 0.0 0.00 0.00 0.00 73 1010.5
20260904154511 71 250 0.0 0.0 0.00 0.00 0.00 77 1010.4
20260904153008 70 250 0.0 0.0 0.00 0.00 0.00 78 1010.0
20260904151503 69 250 0.0 0.0 0.00 0.00 0.00 83 1010.2
20260904150058 68 250 0.0 0.0 0.00 0.00 0.00 86 1010.1
20260904144554 66 250 0.0 0.0 0.00 0.00 0.00 88 1010.1
20260904143054 64 250 0.0 0.0 0.00 0.00 0.00 88 1010.1
20260904141554 63 250 0.0 0.0 0.00 0.00 0.00 88 1009.6
20260904140027 63 250 0.0 0.0 0.00 0.00 0.00 88 1009.8
20260904134516 64 250 0.0 0.0 0.00 0.00 0.00 88 1009.7
20260904133013 64 250 0.0 0.0 0.00 0.00 0.00 88 1009.6
20260904131513 64 250 0.0 0.0 0.00 0.00 0.00 88 1009.5
20260904130025 64 250 0.0 0.0 0.00 0.00 0.00 88 1009.0